Regional Weather Roundup
Issued by NWS

Home | Current Version | Previous Version | Text Only | Print | Product List | Glossary On
Versions: 1 2 3 4 5 6 7 8 9 10 11 12 13 14 15 16 17 18 19 20 21 22 23 24 25 26 27 28 29 30 31 32 33 34 35 36 37 38 39 40 41 42 43 44 45 46 47 48 49 50
762
ASUS45 KBOI 132010
RWRID

IDAHO REGIONAL WEATHER ROUNDUP
NATIONAL WEATHER SERVICE BOISE ID
100 PM MST SAT FEB 13 2016

NOTE: "FAIR" INDICATES FEW OR NO CLOUDS BELOW 12000 FEET
WITH NO SIGNIFICANT WEATHER AND/OR OBSTRUCTIONS TO VISIBILITY

IDZ012-014-132100-
SOUTHWEST IDAHO


CITY           SKY/WX    TMP DP  RH WIND       PRES   REMARKS
BOISE          SUNNY     48  33  56 NW12      30.32F
CALDWELL       SUNNY     50  32  50 W12       30.34F
MOUNTAIN HOME  SUNNY     49  31  51 NW13      30.31F
$$

IDZ016-017-132100-
SOUTHCENTRAL IDAHO


CITY           SKY/WX    TMP DP  RH WIND       PRES   REMARKS
BURLEY         LGT RAIN  46  32  58 W16G25    30.28F
JEROME         SUNNY     43  31  62 W18G26    30.28F
TWIN FALLS     MOSUNNY   46  33  60 W21G28    30.29F
$$

IDZ019>023-132100-
SOUTHEAST IDAHO


CITY           SKY/WX    TMP DP  RH WIND       PRES   REMARKS
IDAHO FALLS    MOSUNNY   35  28  75 SW18G33   30.17F WCI  24
POCATELLO      MOSUNNY   44  32  62 SW29G38   30.23F
REXBURG        PTSUNNY   33  26  75 SW7       30.18R WCI  27
$$

IDZ006-010-011-018-031-032-132100-
CENTRAL IDAHO MOUNTAINS


CITY           SKY/WX    TMP DP  RH WIND       PRES   REMARKS
MCCALL         PTSUNNY   36  23  59 SE3       30.24S
HAILEY         MOSUNNY   37  30  75 E14         N/A  WCI  29
STANLEY          N/A     38  13  35 VRB6      30.21F WCI  33
SALMON         CLOUDY    39  27  60 CALM      30.19S
CHALLIS        MOSUNNY   40  20  44 NW14G22   30.16F WCI  32
$$

IDZ002-004-006-007-026-132100-
NORTHERN IDAHO


CITY           SKY/WX    TMP DP  RH WIND       PRES   REMARKS
LEWISTON       MOSUNNY   52  35  52 NW8       30.26S
LOWELL           N/A     43  41  93 N3        30.30F
COEUR D`ALENE  CLOUDY    45  34  65 SW22      30.20S
MULLAN PASS    SNOW      27  26  96 VRB6      30.12R VSB 1/2 WCI  20
$$




USA.gov is the U.S. government's official web portal to all federal, state and local government web resources and services.